Abbotsford, British Columbia

6:12 AM PST on December 05, 2016 (GMT -0800)
Abbotsford

Weather History for 71108 - December, 2013

Change the Weather History Date:

Tuesday, December 17, 2013

  Actual Average Record
Temperature  
Mean Temperature 36 °F -  
Max Temperature 42 °F 42 °F - ()
Min Temperature 30 °F 30 °F - ()
Degree Days  
Heating Degree Days 30    
Moisture  
Dew Point 36 °F    
Average Humidity 98    
Maximum Humidity 100    
Minimum Humidity 84    
Precipitation  
Precipitation 0.04 in 0.27 in - ()
Sea Level Pressure  
Sea Level Pressure 30.16 in    
Wind  
Wind Speed 3 mph ()    
Max Wind Speed 9 mph    
Max Gust Speed -    
Visibility 4.9 miles    
Events Fog , Rain    
T = Trace of Precipitation, MM = Missing Value Source: Averaged Metar Reports

Daily Weather History Graph

Daily Weather History Graph

Search for Another Location

Airport or City:

Trip Planner

Search our weather history database for the weather conditions in past years. The results will help you decide how hot, cold, wet, or windy it might be!

Date:

Astronomy

Dec. 17, 2013 Rise Set
Actual Time 7:58 AM PST 4:12 PM PST
Civil Twilight 7:21 AM PST 4:50 PM PST
Nautical Twilight 6:40 AM PST 5:30 PM PST
Astronomical Twilight 6:02 AM PST 6:09 PM PST
Moon 5:03 PM PST (12/17) 7:53 AM PST (12/17)
Length of Visible Light 9h 28m
Length of Day
8h 14m
Full, 100% of the Moon is Illuminated
Dec 17
Full
Dec 25
Last Quarter
Jan 1
New
Jan 7
First Quarter
Jan 15
Full

Hourly Weather History & Observations

Time (PST) Temp. Windchill Dew Point Humidity Pressure Visibility Wind Dir Wind Speed Gust Speed Precip Events Conditions
12:00 AM 33.8 °F 29.6 °F 33.8 °F 100% 30.28 in 15.0 mi NNE 4.6 mph - N/A Fog Shallow Fog
1:00 AM 33.8 °F - 33.8 °F 100% 30.27 in 15.0 mi Calm Calm - N/A Fog Shallow Fog
2:00 AM 30.2 °F - 30.2 °F 100% 30.27 in 6.0 mi East 2.3 mph - N/A Fog Patches of Fog
3:00 AM 33.8 °F 30.8 °F 33.8 °F 100% 30.26 in 10.0 mi North 3.5 mph - N/A Fog Patches of Fog
4:00 AM 33 °F - 33 °F 98% 30.22 in 3 mi East 3.5 mph - -   Mist
4:00 AM 32.0 °F 28.7 °F 32.0 °F 100% 30.22 in 3.0 mi East 3.5 mph - N/A   Scattered Clouds
4:03 AM 32.0 °F 28.7 °F 32.0 °F 100% 30.22 in 1.0 mi East 3.5 mph - N/A   Mostly Cloudy
4:10 AM 33.8 °F - 33.8 °F 100% 30.22 in 0.5 mi Calm Calm - N/A Fog Fog
4:50 AM 33.8 °F 30.8 °F 33.8 °F 100% 30.21 in 1.5 mi NNW 3.5 mph - N/A Fog Patches of Fog
5:00 AM 32.0 °F - 32.0 °F 100% 30.21 in 2.5 mi NNE 2.3 mph - N/A Fog Patches of Fog
6:00 AM 32.0 °F - 32.0 °F 100% 30.20 in 0.6 mi Variable 2.3 mph - N/A   Mostly Cloudy
6:45 AM 32.0 °F - 32.0 °F 100% 30.21 in 1.0 mi Calm Calm - N/A   Partly Cloudy
7:00 AM 32.0 °F - 32.0 °F 100% 30.20 in 8.0 mi Variable 2.3 mph - N/A   Mostly Cloudy
8:00 AM 33.8 °F - 33.8 °F 100% 30.20 in 30.0 mi North 2.3 mph - N/A Fog Patches of Fog
8:22 AM 33.8 °F - 33.8 °F 100% 30.19 in 30.0 mi East 2.3 mph - N/A Rain Light Rain
9:00 AM 33.8 °F - 33.8 °F 100% 30.20 in 15.0 mi Calm Calm - N/A Rain Light Rain
10:00 AM 35 °F - 35 °F 97% 30.20 in 6 mi South 2.3 mph - - Rain Light Rain
10:00 AM 33.8 °F - 33.8 °F 100% 30.20 in 6.0 mi Calm Calm - N/A Rain Light Rain
11:00 AM 35.6 °F 31.7 °F 35.6 °F 100% 30.18 in 10.0 mi SW 4.6 mph - N/A   Overcast
11:53 AM 37.4 °F 32.8 °F 37.4 °F 100% 30.16 in 4.0 mi North 5.8 mph - N/A   Overcast
12:00 PM 39.2 °F 37.0 °F 39.2 °F 100% 30.16 in 3.0 mi North 3.5 mph - N/A   Overcast
12:07 PM 39.2 °F 37.0 °F 39.2 °F 100% 30.15 in 2.0 mi NNE 3.5 mph - N/A   Light Drizzle
1:00 PM 39.2 °F - 39.2 °F 100% 30.14 in 1.5 mi NNE 2.3 mph - N/A   Light Drizzle
2:00 PM 39.2 °F 35.9 °F 39.2 °F 100% 30.13 in 1.0 mi WSW 4.6 mph - N/A   Light Drizzle
2:47 PM 39.2 °F 35.9 °F 39.2 °F 100% 30.12 in 0.8 mi SSW 4.6 mph - N/A   Light Drizzle
3:00 PM 39.2 °F 37.0 °F 39.2 °F 100% 30.12 in 0.8 mi SSW 3.5 mph - N/A   Light Drizzle
3:25 PM 39.2 °F - 39.2 °F 100% 30.11 in 1.2 mi Variable 2.3 mph - N/A   Light Drizzle
3:50 PM 39.2 °F - 39.2 °F 100% 30.12 in 1.2 mi Variable 2.3 mph - N/A   Overcast
4:00 PM 38 °F - 38 °F 100% 30.12 in 1 mi South 1.2 mph - - Rain Light Drizzle
4:00 PM 39.2 °F - 39.2 °F 100% 30.12 in 1.2 mi Calm Calm - N/A   Overcast
4:40 PM 37.4 °F - 37.4 °F 100% 30.12 in 2.0 mi Calm Calm - N/A   Light Drizzle
5:00 PM 37.4 °F - 37.4 °F 100% 30.11 in 4.0 mi Variable 2.3 mph - N/A   Light Drizzle
6:00 PM 39.2 °F 35.9 °F 39.2 °F 100% 30.09 in 4.0 mi NW 4.6 mph - N/A   Light Drizzle
7:00 PM 39.2 °F 34.2 °F 39.2 °F 100% 30.09 in 3.0 mi WSW 6.9 mph - N/A   Light Drizzle
8:00 PM 41.0 °F 39.0 °F 39.2 °F 93% 30.09 in 6.0 mi SW 3.5 mph - N/A   Light Drizzle
9:00 PM 41.0 °F 39.0 °F 37.4 °F 87% 30.09 in 6.0 mi WSW 3.5 mph - N/A   Light Drizzle
9:38 PM 41.0 °F 36.4 °F 39.2 °F 93% 30.09 in 10.0 mi SW 6.9 mph - N/A   Overcast
10:00 PM 42 °F - 39 °F 84% 30.09 in 10 mi SW 8.1 mph - - Rain Light Drizzle
10:00 PM 41.0 °F 35.8 °F 39.2 °F 93% 30.09 in 10.0 mi SW 8.1 mph - N/A   Overcast
11:00 PM 42.8 °F 37.5 °F 39.2 °F 87% 30.08 in 10.0 mi South 9.2 mph - N/A   Overcast